Torna al catalogo

STARLINK-33860

AttivoComunicazioniVLEO
NORAD 64033·PAYLOAD·🇺🇸 United States

Lanciato May 16, 2025 da Vandenberg Space Force Base

Loading…

Prossimi Passaggi (prossime 24 ore)

TLE

AggiornatoSource: CelesTrak SupGP

Epoca: Sep 14, 2026, 22:45 UTC

1 64033C 25102M   26257.94840278 -.00023844  00000+0 -82987-3 0  2576
2 64033  70.0010 355.5089 0003143 271.5673 151.0565 15.29574721    10

Traccia STARLINK-33860 in tempo reale con AllMySat

Download on the App Store